Location: Newport
(44.6370°N, 124.0520°W)
Time: 09:11:00
(UTC-07:00)

Envisat - Pass Details

Date: 11 October 2017
Orbit: 764 x 766 km, 98.2° (Epoch: 20 October)

Event Time Altitude Azimuth Distance (km) Brightness Sun altitude
Exits shadow 19:10:56 - 83° (E) 2,476 4.9 -6.7°
Reaches altitude 10° 19:12:07 10° 71° (ENE) 2,307 4.9 -6.9°
Maximum altitude 19:13:26 11° 56° (NE) 2,239 4.9 -7.1°
Drops below altitude 10° 19:14:46 10° 40° (NE) 2,310 5.1 -7.3°
Sets 19:18:58 0° 6° (N) 3,242 6.2 -8.1°
